RH
87 87 87 89 90 91 92 91 89 87 87 88 88 86 85 86 88 90 90 96 99 95 91 88 90 93 94 92 88 84 84 83 81 77 73 69 63 57 51 46 39 32 24 18 15 14 12 11 11 11 12 12 12 13 12 12 12 11 11 10 10 10 9 8 8 8 7 9 11 12 10 9 9 7 6 5 4 4 3 3 3 3 3 3 3 3 3 3
94 95 95 93 93 94 95 95 93 92 93 91 85 79 78 82 90 95 93 94 95 92 87 84 82 81 80 78 76 75 75 73 71 69 65 59 53 46 39 31 23 17 12 9 9 9 9 9 9 9 10 11 11 10 10 10 10 10 9 8 8 7 8 8 8 9 10 11 11 11 10 9 7 6 5 4 4 3 3 3 3 3 3 3 3 3 2 2
98 97 95 94 96 97 99 98 96 94 89 81 74 73 78 84 89 92 93 90 86 83 80 76 72 68 66 64 63 64 64 63 62 59 53 46 39 31 22 15 10 8 7 8 10 10 11 11 11 11 11 11 11 10 10 9 8 8 7 7 8 9 11 11 11 12 12 11 10 9 8 7 6 5 4 3 3 3 3 2 2 2 2 2 2 2 2 2
99 96 93 93 96 97 97 94 89 82 73 68 70 77 83 84 84 84 85 84 80 77 72 67 64 61 60 58 57 58 60 59 55 49 42 34 25 17 11 7 6 6 7 8 10 11 12 12 12 11 10 10 9 8 7 7 7 8 9 11 12 13 14 14 12 12 10 8 7 6 5 4 3 3 3 3 2 2 2 2 2 2 2 2 2 2 2 2
99 96 93 91 91 90 87 82 74 66 60 63 70 76 77 76 78 79 77 76 73 70 67 63 60 58 56 53 54 56 56 50 43 37 30 21 13 9 7 5 5 5 6 7 8 9 10 10 9 8 7 7 7 8 8 10 12 13 15 15 14 13 12 11 9 8 6 5 4 3 3 3 2 3 3 2 2 2 3 3 3 2 2 2 3 3 3 3
91 95 93 88 86 85 79 70 60 54 54 62 67 69 70 70 74 75 72 69 66 64 63 60 56 54 53 53 54 53 47 38 31 25 18 12 8 6 5 5 5 5 5 6 6 7 7 7 7 7 8 9 12 14 14 15 16 17 16 14 12 10 8 7 6 5 4 3 4 4 4 3 3 4 5 4 3 4 5 6 5 5 5 5 6 6 6 6
67 77 79 78 77 77 69 57 49 49 55 62 65 66 67 68 70 72 69 66 64 61 58 54 52 52 52 51 49 43 35 28 20 14 10 7 6 5 5 5 5 5 6 6 6 7 8 9 11 13 15 16 17 17 16 15 14 13 12 10 8 6 5 5 4 5 5 6 7 8 8 7 6 8 9 8 8 8 9 9 8 9 9 9 10 10 10 9
42 53 58 58 60 64 56 45 43 50 59 64 64 64 64 65 66 66 65 62 58 54 52 50 48 44 40 36 31 25 20 15 10 7 6 5 5 5 5 5 6 6 8 10 11 13 15 16 17 18 16 14 13 11 10 9 7 7 7 6 6 6 6 7 8 8 9 10 10 11 11 11 11 12 11 10 11 11 10 10 10 10 9 10 10 9 10 9
26 36 44 44 47 54 47 38 40 49 58 61 61 61 60 60 59 58 56 52 48 45 42 38 33 26 21 18 16 13 10 7 6 6 5 5 5 5 6 8 10 12 14 17 17 16 16 14 12 11 10 8 7 7 7 7 7 7 8 9 9 9 9 10 11 11 11 11 9 9 9 10 11 11 9 8 8 8 8 8 8 7 7 7 7 6 6 6
18 23 31 35 39 44 40 33 34 43 52 55 55 56 55 53 51 47 42 38 34 30 25 20 16 13 11 10 9 7 5 5 5 5 5 5 7 10 13 15 16 16 15 14 12 10 9 8 8 9 10 11 10 10 11 10 10 10 11 12 12 10 10 10 9 10 9 8 7 6 6 7 7 7 7 6 6 6 6 6 6 6 6 6 6 5 5 5
15 15 19 25 30 32 30 28 27 35 45 47 48 48 45 41 36 31 26 22 19 15 12 10 9 9 8 7 6 5 5 5 5 5 7 9 13 17 16 14 13 11 9 8 8 9 9 10 12 12 13 14 13 12 12 11 10 10 10 10 10 8 7 7 7 7 7 6 6 6 6 6 6 6 6 6 6 6 6 6 6 6 6 6 6 6 6 6
14 12 12 16 19 21 21 20 22 31 37 37 36 33 29 25 21 17 14 12 10 8 8 8 7 7 5 5 5 5 5 6 8 11 14 15 16 13 10 9 8 9 11 12 13 14 14 14 14 13 13 13 11 10 9 9 7 6 6 6 6 6 6 6 6 6 6 6 6 6 6 5 5 5 5 5 5 5 5 5 5 4 5 4 4 4 4 4
12 11 10 10 11 12 14 14 18 24 25 23 21 18 15 13 11 10 9 8 8 7 7 6 6 5 5 5 5 6 8 12 15 16 15 13 10 7 9 13 13 14 15 15 14 14 14 13 12 11 10 9 8 7 6 5 5 5 5 5 6 7 6 7 7 6 6 6 6 6 5 4 5 5 4 4 4 4 4 3 3 3 3 3 3 3 3 3
9 8 7 7 6 8 9 10 12 14 14 13 11 10 9 9 8 7 7 7 7 6 6 5 5 5 6 7 10 13 15 16 15 12 9 10 11 13 15 17 16 15 14 13 12 11 11 10 9 7 6 5 5 5 5 4 5 6 6 7 8 7 6 7 6 5 5 5 5 4 4 4 5 5 5 4 4 4 4 4 4 4 4 3 3 3 3 3
6 6 5 5 5 6 7 8 9 9 9 9 8 8 7 7 7 7 6 6 5 5 5 5 6 8 11 14 16 16 14 11 9 9 11 14 16 17 16 15 13 11 9 9 8 7 6 5 5 5 4 4 4 5 6 6 7 8 7 7 6 6 5 5 4 4 4 4 4 4 4 5 5 6 6 6 6 6 6 6 5 5 4 4 4 3 3 3
4 5 5 6 6 7 8 8 8 8 8 7 7 7 6 6 6 5 5 5 5 6 7 9 12 15 17 16 13 11 10 10 13 15 16 16 15 14 12 10 7 6 5 4 4 4 4 4 4 5 5 6 7 8 8 8 7 6 6 5 4 5 4 4 4 4 4 4 4 4 4 5 6 7 7 7 7 7 7 7 7 6 6 5 5 5 5 5
6 6 7 7 7 8 8 7 7 7 7 6 6 6 6 5 5 5 6 7 9 11 14 16 16 15 13 10 10 12 14 15 16 15 14 12 10 8 7 5 4 4 4 4 4 5 6 6 7 7 7 8 8 8 6 5 4 4 4 4 4 4 4 4 4 3 4 4 4 4 5 6 7 8 8 8 8 7 8 8 8 8 8 8 8 8 8 7
7 7 7 7 7 7 7 6 6 6 6 5 5 5 5 6 7 9 11 14 16 16 16 14 12 11 11 13 15 16 16 15 13 11 8 7 5 4 4 4 4 5 5 6 6 7 8 8 8 7 6 6 5 4 4 3 3 3 3 3 3 4 4 3 3 4 4 4 5 5 7 9 10 10 9 8 7 7 8 9 9 10 10 10 10 10 10 10
6 6 6 6 6 6 6 5 5 5 5 5 6 7 9 11 14 15 16 16 15 13 12 11 12 14 16 17 16 15 14 11 8 6 4 4 4 4 5 5 6 6 7 7 8 8 8 7 6 5 4 3 3 3 3 3 3 3 3 3 3 3 4 5 4 5 4 5 6 5 7 11 11 9 7 5 6 6 6 7 7 8 9 10 10 11 12 13
6 6 5 5 5 5 5 5 6 7 8 10 12 13 15 15 15 14 13 12 12 11 12 14 17 17 16 14 12 10 8 5 4 4 4 5 5 5 6 7 7 7 7 7 7 6 5 4 3 3 3 3 3 3 3 3 3 3 3 4 4 4 5 7 6 6 5 5 5 4 6 9 8 6 5 4 5 5 5 5 6 6 7 7 8 9 10 12
5 5 5 5 6 7 8 10 12 13 14 15 14 14 13 12 12 11 12 13 15 16 17 18 17 14 10 8 6 5 4 4 4 5 5 5 6 6 6 7 7 7 6 6 4 3 3 3 3 3 3 3 3 3 3 4 4 4 4 5 6 6 6 7 6 6 5 5 5 5 6 7 6 5 5 5 5 6 6 6 5 6 6 7 7 7 8 9
7 8 9 11 12 14 15 15 15 15 13 12 11 11 11 12 13 15 16 16 16 16 15 13 10 7 5 4 4 4 4 5 5 5 5 5 6 7 7 7 6 5 4 3 3 3 3 3 3 3 3 4 4 4 4 5 5 6 6 7 7 7 6 6 6 6 6 6 6 6 6 6 6 6 6 6 6 6 5 5 6 6 6 7 7 7 8 9
13 14 14 15 14 14 13 13 12 12 12 13 14 15 16 16 16 16 15 13 12 11 8 6 5 4 4 5 5 5 5 5 4 5 6 6 6 6 6 4 3 3 3 3 3 3 3 3 4 4 4 5 5 5 6 6 8 8 8 7 7 7 7 6 7 7 7 6 6 7 7 7 7 7 6 6 7 7 6 6 6 6 6 6 7 8 8 8
12 12 12 11 11 11 12 13 14 16 17 17 17 16 15 14 12 10 9 8 7 6 5 4 4 5 5 5 5 5 5 5 5 6 6 5 5 4 3 3 2 3 3 3 4 4 4 5 5 5 6 6 6 7 6 7 9 9 8 9 9 9 9 9 9 8 8 8 7 7 7 7 8 7 7 7 8 8 8 8 8 8 8 8 9 9 10 10
11 12 12 13 14 15 17 18 19 19 18 16 15 13 11 10 9 7 5 5 4 4 5 5 5 6 5 5 5 5 4 5 5 4 4 3 3 3 2 3 3 4 4 4 5 5 6 7 7 7 7 7 7 7 7 8 9 9 10 10 10 10 10 10 9 9 9 8 8 9 9 9 8 8 8 8 9 10 10 10 10 10 10 11 11 11 12 12
17 18 18 19 19 19 19 18 16 15 13 12 10 9 8 8 8 6 5 5 5 5 5 5 5 5 6 5 5 5 4 3 3 2 2 3 3 3 3 4 4 5 6 6 6 7 8 8 9 9 9 9 9 9 10 9 10 11 11 11 11 11 11 10 10 10 10 9 10 10 10 8 7 7 7 8 8 9 9 10 11 12 12 13 13 14 14 14
20 19 18 17 16 15 14 12 10 9 8 8 7 6 6 6 6 6 5 5 5 5 5 5 5 5 5 5 4 4 2 2 3 3 3 3 3 4 5 5 6 7 8 8 9 9 9 10 11 11 11 11 11 11 11 11 11 12 12 12 12 11 11 11 10 11 10 10 9 9 9 8 7 6 7 7 7 8 8 9 10 11 12 13 14 15 15 15
18 15 13 12 10 9 7 6 5 5 5 5 5 5 5 5 5 5 5 5 5 5 5 5 4 4 4 3 2 3 2 3 4 4 4 4 5 6 7 8 8 9 10 10 11 11 12 13 13 13 13 13 13 13 13 13 13 13 13 13 12 12 12 11 11 11 10 8 8 9 9 8 7 7 8 8 8 9 9 9 10 11 11 12 14 15 16 17
14 11 10 8 8 7 5 4 4 4 4 4 4 4 4 4 4 4 5 5 5 5 4 3 3 3 2 2 2 3 4 4 4 5 6 6 7 8 9 10 11 12 13 13 13 14 15 15 15 15 15 15 15 14 14 14 14 14 13 13 13 12 11 11 10 9 9 8 8 9 8 9 9 8 9 9 10 10 11 11 12 12 12 12 13 14 16 17
9 7 6 5 5 5 4 4 4 4 4 4 4 4 4 3 3 4 4 5 5 4 3 3 3 3 3 3 4 4 5 6 6 7 8 9 10 11 12 13 14 15 16 17 17 18 18 18 18 17 17 17 16 16 15 15 14 14 13 13 12 12 11 10 10 9 9 7 8 9 10 11 10 9 10 11 11 12 12 13 13 14 15 15 16 17 19 20
6 5 4 4 4 4 4 4 4 5 5 4 4 4 4 4 4 4 4 4 4 3 3 3 3 3 4 5 5 5 7 8 8 9 10 11 11 11 12 13 12 14 15 16 19 21 21 21 20 19 19 18 17 17 16 15 14 13 13 13 12 11 10 8 8 9 9 8 9 10 11 12 12 12 13 12 13 14 14 15 16 16 16 16 18 19 21 23
4 4 4 4 4 4 4 5 5 5 4 4 4 3 4 6 5 4 3 3 3 3 3 4 4 4 5 6 6 7 8 9 9 9 9 10 9 10 11 10 10 10 10 10 16 23 24 22 22 21 19 19 18 17 16 14 14 13 13 13 11 10 9 8 9 10 10 10 10 11 12 13 13 13 14 15 16 16 16 18 17 18 20 21 23 23 27 34
4 5 4 5 5 5 5 5 4 4 3 3 3 4 5 6 4 2 3 3 3 4 4 4 5 6 6 7 8 9 9 9 9 9 9 9 9 10 11 11 11 11 10 9 14 22 25 23 23 21 20 20 18 17 15 14 14 13 13 12 11 12 12 12 11 12 12 11 10 12 13 13 14 15 16 16 17 18 20 22 23 25 25 25 27 35 49 64
5 5 5 5 5 4 4 3 3 3 3 3 3 4 5 4 3 3 3 3 4 5 5 5 7 7 8 9 9 9 9 9 9 9 9 10 10 11 11 12 12 11 12 14 18 23 25 24 23 21 20 19 18 17 16 15 14 12 12 12 12 14 15 15 15 15 16 14 12 13 13 14 15 15 15 17 19 22 24 25 29 33 38 47 56 64 73 80
5 5 5 4 4 4 3 3 3 3 3 4 3 4 4 3 3 3 4 4 5 6 6 7 7 8 9 9 9 9 9 9 9 9 10 10 11 11 12 12 12 12 15 20 23 24 24 24 23 21 19 17 17 17 16 14 12 11 12 13 14 16 16 17 17 17 18 16 14 14 15 16 15 15 17 20 22 24 28 33 41 49 54 60 60 56 54 56
5 4 4 3 3 3 3 3 3 3 3 4 3 4 4 3 4 4 5 6 6 7 7 7 7 8 9 8 8 8 8 8 9 9 10 11 12 12 12 12 13 17 21 24 24 23 22 23 22 20 18 18 17 16 15 13 13 13 14 15 16 17 17 18 18 17 18 18 16 17 18 17 17 18 20 24 28 32 37 42 45 45 41 40 46 58 69 76
4 4 4 3 3 3 3 3 3 3 3 3 4 4 4 4 5 5 6 6 7 7 8 8 7 7 8 7 8 8 8 9 9 10 11 12 13 12 13 15 19 24 26 24 24 22 20 20 20 19 18 18 16 14 15 15 15 16 16 17 18 17 17 18 18 19 20 20 19 19 19 18 19 22 26 34 41 41 40 41 37 30 28 38 56 72 81 84
4 4 4 3 3 3 3 3 3 3 3 4 5 4 5 5 6 6 7 7 7 7 7 7 7 7 7 7 7 7 8 9 10 11 12 13 13 13 16 20 23 25 25 24 24 22 19 18 19 19 18 16 14 14 16 17 18 18 19 20 19 19 19 18 19 22 24 24 23 22 21 19 21 28 38 48 50 42 35 31 26 25 33 50 63 65 65 69
4 4 4 3 3 3 3 3 3 4 4 5 5 5 5 6 6 6 6 6 6 6 6 7 7 7 6 6 6 7 9 10 12 13 13 13 15 17 20 22 23 24 24 24 23 21 21 19 18 19 17 15 15 17 18 19 20 20 20 20 19 20 20 18 20 22 24 25 25 26 26 20 24 37 46 50 45 34 29 30 35 44 46 50 58 59 58 64
3 4 4 3 3 3 3 3 4 4 5 5 6 6 6 6 6 6 6 6 6 6 6 7 6 6 6 6 7 10 12 14 14 14 14 16 18 19 19 20 23 24 24 24 23 22 22 20 18 17 15 15 17 20 21 22 22 21 20 20 19 19 19 19 19 20 22 25 29 35 31 20 29 40 40 39 33 27 35 48 63 75 66 46 38 35 32 35
3 4 4 3 3 3 3 4 4 5 5 6 6 5 5 6 6 6 6 6 6 6 5 6 5 5 6 8 11 14 15 15 15 15 17 19 19 17 17 19 22 24 24 25 24 23 22 20 18 17 16 17 20 22 24 24 23 22 21 21 21 20 20 20 20 19 20 25 31 36 29 21 30 36 32 33 31 35 58 74 83 93 76 42 25 23 23 23
4 4 3 3 3 3 4 4 5 5 5 5 5 5 6 6 6 6 5 5 5 5 5 5 6 8 10 12 14 16 16 16 17 19 21 21 18 17 19 21 22 24 25 25 24 23 22 20 19 18 18 20 22 24 25 25 24 23 22 22 21 20 20 20 21 21 20 22 25 27 25 22 28 33 31 30 36 58 87 97 99 93 60 26 21 25 25 24
4 3 3 2 3 4 4 5 5 5 5 5 5 5 5 5 5 5 5 4 5 5 6 8 9 11 13 15 17 17 18 19 20 22 22 20 19 19 21 22 24 25 25 25 25 24 23 22 21 20 21 22 24 26 26 25 24 23 23 22 21 20 21 21 22 22 20 21 23 26 28 25 28 32 28 32 58 88 97 87 78 59 29 21 34 38 37 39
3 3 2 3 4 4 4 5 5 5 5 5 5 5 5 5 4 4 4 5 6 7 9 11 13 15 16 18 19 19 19 20 21 21 20 20 21 22 23 24 25 26 26 26 26 25 25 25 23 22 23 25 27 27 25 24 24 25 24 23 21 21 22 21 21 22 21 21 23 30 32 28 30 32 26 34 60 73 61 46 38 28 26 40 48 45 51 63
2 2 3 3 4 4 4 5 5 5 4 4 4 4 4 4 4 5 6 8 9 10 11 13 15 17 19 20 20 21 21 21 20 20 21 21 23 25 26 26 26 27 27 27 27 27 27 27 25 24 25 27 29 29 28 27 27 26 24 23 22 22 22 21 21 22 24 23 25 33 36 32 31 30 27 30 36 34 28 24 23 31 53 71 65 57 68 85
2 3 3 3 4 4 4 4 4 4 3 3 4 4 4 6 6 8 9 10 11 12 13 16 18 19 20 21 22 23 23 22 21 22 23 24 26 27 28 28 29 29 28 29 30 29 30 29 27 26 27 29 31 31 31 30 28 26 24 23 23 22 21 21 21 24 28 30 31 35 37 35 30 28 27 25 25 24 22 24 38 64 89 96 85 79 89 99
3 3 3 4 4 3 3 3 3 4 3 4 5 6 7 8 9 10 11 11 13 14 16 18 19 20 21 21 22 23 24 25 25 25 26 28 29 30 30 31 31 31 31 32 32 32 32 32 30 29 30 31 32 32 31 30 28 26 24 24 23 22 21 21 21 26 33 37 37 36 36 33 28 26 25 22 24 23 23 41 75 98 104 103 99 99 103 103
3 3 3 3 3 3 3 3 4 4 4 6 8 8 9 10 10 11 12 13 16 18 19 21 22 23 24 24 25 25 26 27 28 29 30 31 32 33 34 33 33 34 35 35 35 35 35 33 32 32 32 33 33 32 31 30 28 25 25 24 23 23 21 21 24 29 37 42 40 37 35 31 27 25 23 23 24 23 37 74 103 104 100 103 102 99 96 94
4 4 4 3 3 4 4 4 5 6 6 8 10 10 11 12 12 13 15 17 20 21 22 23 25 26 28 29 29 29 29 30 31 32 34 34 35 36 36 37 37 38 38 38 38 38 36 34 34 33 33 34 33 32 31 29 27 26 25 24 23 23 22 22 25 32 40 43 41 38 33 27 26 25 22 22 23 29 58 93 107 101 99 99 94 91 91 90
4 4 4 4 4 4 5 6 6 8 9 10 12 12 12 14 15 17 20 22 24 25 25 26 27 28 30 31 31 33 35 36 36 37 37 38 39 39 40 40 41 41 42 41 40 39 37 35 35 34 34 34 33 32 31 29 27 26 26 25 24 23 22 22 27 36 44 43 40 37 31 25 24 24 23 22 22 38 70 95 103 101 94 88 86 86 90 94
4 3 3 4 6 6 8 8 8 10 12 12 13 13 15 17 18 21 24 25 26 27 27 29 30 30 31 32 33 37 39 41 42 43 43 43 43 44 44 44 45 44 44 43 41 39 38 37 37 36 35 34 33 32 31 29 27 27 26 25 25 24 23 25 32 42 47 44 39 35 28 24 24 24 26 25 24 43 72 91 103 101 88 85 90 86 86 94
6 6 5 7 9 10 10 11 11 12 14 14 15 16 18 20 21 24 27 27 27 29 29 31 31 32 33 34 36 38 41 43 47 48 48 48 49 49 49 48 48 47 45 44 42 40 39 38 38 38 37 36 34 33 31 30 28 27 27 26 26 27 27 27 33 44 49 44 39 33 25 23 23 24 26 24 25 45 69 86 102 105 92 88 91 90 92 96
Wind_Speed
24 23 23 22 22 21 21 20 20 19 19 17 16 16 15 14 14 15 14 15 16 15 12 10 9 10 11 10 10 10 11 12 12 13 14 16 17 18 20 20 21 21 21 22 22 22 21 21 22 22 22 22 23 23 23 24 25 26 26 26 26 28 29 28 29 29 28 26 25 26 28 28 27 29 30 30 30 31 30 31 32 32 33 34 36 36 36 37
23 22 21 21 20 20 19 19 18 18 17 16 15 14 12 11 11 11 9 7 8 9 8 7 6 4 4 5 6 7 9 10 12 14 16 17 17 17 18 19 20 20 21 21 21 21 21 20 20 21 21 21 22 23 24 24 25 25 25 25 25 26 26 26 27 27 27 25 24 26 27 27 28 29 29 29 29 30 31 31 32 33 35 36 37 38 38 39
22 21 20 19 19 18 18 18 17 16 16 15 14 12 9 7 7 6 5 5 5 6 5 4 4 3 3 5 6 8 10 12 14 15 16 16 16 16 17 18 18 19 20 20 20 20 20 19 19 19 20 20 21 23 24 25 25 24 24 23 23 23 23 25 25 25 25 25 24 25 26 27 29 29 29 29 29 30 32 32 33 34 35 36 38 39 39 40
22 22 20 19 18 18 17 17 16 15 14 13 11 9 7 5 5 4 5 5 6 5 5 4 4 4 5 7 9 10 12 14 14 15 15 15 15 15 16 17 17 18 18 18 18 18 18 18 17 18 19 20 21 22 23 23 22 21 22 22 21 21 22 24 24 24 25 25 25 26 26 28 29 29 30 31 31 31 32 33 34 34 36 37 38 40 41 40
24 23 22 20 19 18 17 16 15 15 13 12 10 8 7 6 6 6 6 6 6 6 5 5 6 7 8 10 11 13 14 14 13 14 14 14 14 15 15 16 16 16 17 17 17 17 17 17 17 19 19 19 19 19 19 19 19 19 21 21 21 20 22 24 24 25 25 26 26 26 27 29 29 29 30 32 34 33 32 32 34 36 38 39 39 39 40 40
24 23 22 20 19 18 17 16 14 13 11 10 9 8 8 8 8 8 8 7 7 6 6 7 8 9 11 12 13 13 13 13 12 12 13 13 13 14 15 15 15 15 15 16 15 16 16 16 17 17 17 17 16 16 16 17 18 19 21 22 22 22 23 24 24 25 25 26 26 26 27 30 30 28 30 33 35 35 33 33 35 37 38 39 38 38 40 41
24 23 22 20 19 18 16 15 12 11 10 9 9 9 9 9 9 9 8 8 8 7 8 9 10 12 12 13 13 13 12 11 11 11 11 12 13 13 13 13 13 13 13 13 13 13 13 14 14 15 15 16 17 18 18 18 19 20 21 22 22 23 23 22 23 24 25 25 25 26 28 31 31 30 30 33 36 37 37 36 37 38 38 39 39 40 41 42
24 23 21 19 18 16 15 13 12 11 10 10 10 10 9 9 9 9 9 9 9 9 10 11 12 12 11 11 10 9 9 9 9 10 10 11 11 11 11 11 10 10 10 11 11 11 12 13 14 16 17 18 19 19 19 19 19 19 20 20 21 22 21 21 22 23 24 25 26 27 30 32 33 33 33 34 36 38 40 40 40 40 40 41 41 42 42 43
22 21 19 17 16 15 15 14 12 11 11 11 10 10 10 10 10 9 10 10 10 11 11 11 10 9 7 6 6 6 6 7 8 8 9 9 8 8 8 8 9 9 10 11 11 13 14 15 16 16 16 16 16 16 16 16 17 18 18 19 20 21 21 22 24 25 26 27 27 28 31 34 35 36 35 35 37 38 40 41 41 41 41 42 42 43 44 44
20 19 18 17 16 15 15 14 12 11 12 12 11 11 11 11 11 10 10 10 10 9 8 6 5 4 3 3 4 5 5 6 6 7 7 6 6 6 7 9 10 11 12 12 12 13 13 12 12 12 13 13 13 13 14 15 15 17 19 20 20 21 22 23 24 26 28 29 29 30 32 34 36 37 36 36 37 38 39 41 41 42 42 42 43 43 44 44
20 19 18 17 16 15 15 13 12 13 13 13 13 12 12 11 10 9 8 7 5 4 3 1 1 1 2 3 4 4 4 4 4 4 4 4 5 7 9 10 11 11 11 11 11 11 10 10 11 11 12 13 14 14 15 15 17 18 20 22 23 22 23 25 27 29 30 31 31 32 32 35 37 38 38 38 38 39 40 41 42 43 43 44 44 44 44 44
19 18 18 17 15 14 14 13 13 14 14 14 13 12 10 9 7 5 4 3 2 2 1 1 2 2 3 3 3 3 2 1 2 3 4 5 6 7 8 9 10 10 11 11 10 10 10 11 12 13 14 15 15 16 16 17 18 19 20 23 25 27 27 28 30 31 32 32 33 34 33 34 36 38 38 39 39 39 40 40 41 42 42 43 42 43 44 44
19 18 17 16 15 15 14 14 14 14 13 12 11 9 8 6 5 5 5 5 4 4 4 3 3 3 2 2 2 2 2 1 2 3 4 5 6 7 8 10 10 11 11 11 11 12 12 13 14 15 16 16 16 17 18 19 20 21 22 23 25 28 29 29 31 32 34 34 35 36 34 33 34 36 37 38 38 39 39 39 39 39 40 40 40 40 42 44
18 17 17 16 15 15 14 14 13 13 12 11 10 9 9 8 8 7 7 6 6 5 5 4 4 4 4 3 3 2 1 1 3 4 5 6 7 8 10 11 11 12 12 13 13 14 15 15 15 16 17 17 18 19 21 22 23 24 25 25 26 27 28 29 30 32 34 35 36 36 36 35 34 35 37 37 38 38 39 39 39 40 41 42 44 45 46 47
17 17 16 16 16 16 15 15 15 15 14 14 13 12 11 11 10 9 8 7 7 6 6 6 5 5 5 3 2 1 1 2 3 5 6 8 9 10 11 12 13 13 14 14 15 15 16 17 17 18 19 19 21 23 24 25 26 26 26 26 28 29 29 30 30 31 33 35 37 38 38 37 36 35 37 37 38 37 37 38 41 43 47 49 51 51 50 51
20 20 20 20 20 20 20 20 19 18 17 16 15 14 13 12 11 10 9 9 8 8 7 7 7 5 4 3 2 2 3 4 6 7 8 9 10 11 12 13 14 14 14 15 15 16 17 18 19 19 21 22 24 26 26 26 27 28 28 28 29 30 30 30 31 32 33 34 37 38 39 39 38 36 36 37 37 37 38 40 43 45 48 49 50 50 49 49
28 28 28 27 26 25 24 22 21 19 18 17 16 15 14 13 12 11 10 10 9 8 7 6 6 5 4 4 4 4 5 7 8 9 10 10 11 12 13 14 14 14 15 16 16 18 19 20 21 23 24 25 26 27 26 27 27 28 29 29 30 31 32 33 33 33 33 35 36 36 37 39 39 39 39 39 41 42 43 44 45 46 47 47 47 47 47 47
34 33 31 30 28 26 25 23 22 21 19 18 17 15 14 13 12 11 11 10 9 7 7 6 6 6 6 6 6 6 7 8 10 11 11 12 12 13 14 15 16 16 17 18 18 20 22 23 24 25 25 25 26 27 28 29 30 30 31 31 30 31 33 35 35 35 33 35 37 36 36 38 39 40 42 44 46 47 47 48 48 48 48 48 47 47 46 46
35 33 32 30 28 27 25 24 22 21 19 18 17 16 14 13 12 11 10 9 8 7 6 6 6 7 7 6 6 7 8 9 10 11 12 12 13 14 16 17 18 18 19 20 21 22 24 25 26 25 24 25 27 28 29 29 30 31 31 33 33 33 35 37 37 37 36 36 38 37 36 38 38 41 44 46 47 48 49 50 50 50 49 49 48 48 47 46
34 32 31 29 27 26 25 23 22 21 20 19 18 16 15 14 13 11 10 10 9 8 7 6 7 7 7 7 7 8 9 10 11 11 12 14 15 17 19 19 20 20 21 22 23 24 25 25 25 25 25 26 28 28 29 29 31 33 33 35 37 37 38 40 39 39 39 39 39 39 37 38 40 43 46 46 47 48 49 49 49 49 49 49 49 48 47 47
32 31 29 28 27 26 25 24 23 21 20 19 18 16 15 15 13 12 11 10 9 7 6 6 7 8 8 8 9 9 10 11 11 12 15 17 18 19 20 21 22 23 23 24 24 24 24 25 25 25 26 27 28 30 32 33 35 36 37 39 41 41 40 40 40 40 42 41 41 41 39 40 44 46 47 48 48 49 49 49 49 49 49 49 49 49 48 48
32 31 30 28 27 26 25 23 22 21 20 19 18 17 16 15 13 12 11 10 8 7 7 7 8 8 9 9 10 10 10 12 14 16 18 19 20 21 22 22 23 23 23 23 24 24 25 26 26 28 29 30 32 34 35 37 39 40 41 41 42 43 42 40 40 42 43 43 42 43 42 44 47 48 48 49 50 50 51 51 51 51 51 51 51 51 50 51
32 31 29 28 26 25 24 23 22 21 20 19 19 17 16 14 12 12 12 9 7 8 8 8 8 9 10 11 12 13 13 15 17 18 19 20 21 22 22 23 22 22 22 23 24 25 27 29 30 32 33 34 35 36 37 38 40 41 41 42 42 43 44 43 42 44 44 44 44 44 44 47 48 48 48 49 50 52 53 53 53 53 53 54 53 53 54 55
31 30 29 27 26 25 24 23 21 20 19 18 18 17 15 14 13 13 11 9 8 8 7 8 9 10 12 13 14 15 16 18 19 20 20 21 22 22 22 22 22 22 24 26 28 29 31 33 34 35 36 37 37 37 38 38 38 39 40 42 42 43 45 45 45 44 44 45 45 45 46 48 49 49 48 49 50 53 55 56 56 54 54 55 55 55 57 58
31 30 29 27 26 24 22 21 19 18 18 17 17 16 14 14 13 13 11 9 9 9 9 10 10 11 13 14 15 16 18 19 19 19 20 21 21 21 22 22 24 26 28 30 32 33 34 36 37 38 38 38 38 38 38 38 38 39 40 42 44 45 46 46 46 45 45 46 47 48 49 50 51 51 51 52 53 53 54 55 56 56 56 56 56 57 58 59
30 28 27 26 24 22 20 19 17 17 17 17 17 16 14 13 12 12 12 10 10 10 9 10 12 13 14 15 16 17 19 19 19 20 21 21 21 23 25 26 27 30 32 33 34 34 36 37 37 39 39 39 39 38 39 39 39 40 42 43 45 46 47 47 47 47 47 48 48 51 52 53 54 54 55 56 56 57 55 54 55 56 57 57 58 59 58 58
27 26 25 24 23 21 19 18 18 18 18 18 17 16 14 13 11 11 10 9 10 11 10 11 13 15 16 16 17 18 18 20 21 22 22 22 24 26 29 30 31 32 34 34 34 35 36 37 38 39 39 38 39 39 40 40 40 41 43 44 46 47 47 47 47 48 49 49 50 53 56 58 58 58 58 58 58 59 58 56 57 57 59 60 60 60 59 59
25 24 23 22 21 20 19 19 19 19 18 18 16 15 14 13 11 11 9 8 9 11 12 13 15 16 16 16 18 19 20 21 22 22 23 25 27 29 31 32 33 33 34 35 35 36 37 38 38 38 39 39 40 41 41 41 42 43 45 46 48 48 48 48 49 50 51 52 54 57 60 62 61 59 60 61 60 60 60 60 60 61 62 63 62 62 62 62
22 21 21 20 19 19 19 19 19 19 18 17 16 15 14 12 10 9 8 9 11 12 14 15 16 17 18 18 19 21 22 22 23 24 26 27 28 30 31 33 34 34 36 36 36 37 38 38 38 39 40 41 41 41 42 43 45 45 46 48 48 49 49 50 51 52 54 56 57 59 61 63 63 61 61 63 63 63 64 64 65 66 67 67 67 67 67 66
20 20 19 18 18 18 18 18 17 17 16 15 14 13 13 12 11 10 9 11 13 14 16 17 18 19 20 21 21 22 23 24 24 25 26 28 28 30 31 32 33 34 36 36 36 37 38 39 39 39 40 41 40 41 43 46 47 48 49 50 49 49 51 52 53 55 56 56 57 59 62 64 67 66 65 67 68 68 69 70 70 71 72 72 72 72 71 70
18 18 17 18 18 17 17 17 15 14 13 12 12 11 11 12 13 13 13 13 14 16 18 19 19 20 21 21 21 22 23 24 24 25 25 27 28 30 30 32 34 35 36 37 39 40 40 40 39 39 41 40 39 41 44 47 49 50 51 53 53 52 52 53 55 57 58 58 58 61 64 66 69 69 69 71 72 74 75 76 77 78 78 79 78 76 75 74
18 17 17 17 17 17 16 15 13 12 11 10 11 12 14 13 13 15 15 14 16 18 19 19 19 20 20 20 21 22 23 24 25 26 28 30 32 34 35 38 41 42 42 43 43 41 41 40 39 39 40 40 40 41 43 46 49 50 52 55 57 58 57 58 60 61 62 62 63 65 67 69 70 72 73 74 76 78 79 80 81 82 82 82 81 80 78 77
18 18 17 17 16 15 14 12 11 11 10 11 11 14 16 14 12 15 17 17 18 18 18 19 19 19 20 20 21 22 24 26 27 30 33 35 38 39 40 43 45 45 46 46 44 41 40 39 38 38 39 41 43 45 46 49 51 53 56 58 60 62 62 63 64 65 67 67 67 67 70 72 74 76 77 78 80 81 82 82 83 83 83 83 82 80 78 76
18 17 16 15 13 12 11 11 11 11 12 13 13 15 17 15 14 17 17 18 18 18 18 18 18 19 20 21 22 24 26 29 31 35 37 38 40 41 42 44 45 45 45 44 43 42 40 39 39 39 41 44 46 48 50 51 52 55 56 58 60 61 63 65 65 67 69 71 71 69 70 73 75 78 80 80 82 82 83 83 82 81 80 79 78 77 76 76
16 16 14 13 13 11 11 10 10 11 14 14 16 19 18 15 17 18 18 18 18 18 18 19 19 20 21 23 25 27 30 32 34 37 39 40 41 42 43 44 44 44 44 43 43 42 39 38 39 40 42 45 47 48 49 50 52 54 55 57 59 60 62 64 66 68 70 73 74 72 72 73 75 79 80 80 81 82 82 81 79 77 76 77 78 79 79 77
15 15 14 13 12 11 11 12 11 13 15 17 20 21 17 16 18 18 18 19 18 19 19 20 22 23 24 26 28 31 33 35 36 38 38 39 40 42 43 43 43 43 43 43 43 42 40 37 38 41 43 45 47 49 51 52 54 56 57 59 60 61 63 67 70 70 71 75 76 75 75 77 79 81 81 80 80 80 78 77 76 77 78 79 79 77 75 73
15 14 13 12 12 11 13 13 12 14 18 20 21 19 17 18 18 18 18 19 18 19 19 21 24 25 27 29 31 33 35 36 37 38 38 38 40 41 42 42 42 42 42 43 42 42 42 38 38 41 44 45 46 49 51 54 57 59 61 62 62 64 66 70 73 74 74 77 78 77 78 80 82 82 81 79 77 76 76 76 77 80 79 75 73 72 72 73
14 13 12 11 12 13 14 13 14 18 21 22 20 18 17 17 17 17 17 18 19 20 21 23 25 28 30 32 34 36 37 37 37 38 39 39 40 40 41 41 42 42 42 42 41 41 43 42 40 42 44 45 47 50 52 56 59 60 62 64 66 69 71 72 73 76 77 79 80 81 81 83 84 83 80 77 75 77 79 80 81 80 76 72 71 72 73 75
12 13 13 11 13 15 14 15 17 20 23 22 19 16 16 16 17 17 18 19 21 22 24 25 28 31 33 35 38 39 38 37 38 39 39 39 39 39 40 41 42 43 42 41 41 41 43 45 43 42 43 45 49 53 56 59 60 62 64 67 69 71 73 73 73 75 77 80 84 84 85 88 88 83 80 78 79 83 84 83 81 77 74 75 75 76 76 76
11 14 12 12 14 15 15 17 20 22 23 20 16 15 16 16 16 18 19 21 23 25 27 28 31 34 35 37 39 39 38 37 37 38 38 38 38 39 41 42 42 43 42 41 41 41 43 46 46 44 43 46 52 56 60 64 65 66 69 71 72 72 73 74 74 75 78 82 84 85 90 94 90 86 86 84 85 86 84 82 79 76 79 82 79 78 77 75
12 13 13 13 15 15 15 18 21 21 19 15 13 14 15 16 18 20 22 23 25 28 30 32 34 36 37 37 37 37 36 36 36 36 36 37 38 39 41 42 42 42 42 41 42 43 45 47 48 46 45 48 54 58 62 66 68 71 73 73 75 75 75 77 78 79 81 84 84 87 95 97 92 91 91 87 85 83 80 78 77 79 85 84 77 73 71 68
11 13 13 15 17 15 16 20 19 16 14 13 13 14 16 18 20 22 25 26 28 31 33 34 35 36 36 36 35 35 35 35 35 35 36 36 38 40 40 41 42 42 42 42 43 44 46 48 48 47 47 50 55 61 66 68 70 71 73 74 76 77 77 78 80 82 84 85 87 92 98 99 95 94 92 86 82 79 76 77 78 81 83 77 68 63 58 56
12 13 15 17 17 15 17 18 15 13 13 13 14 15 17 20 23 25 27 29 31 33 34 34 34 34 34 34 35 34 34 33 34 34 35 36 38 39 40 41 41 41 42 43 44 46 48 50 50 48 48 51 55 61 66 69 70 70 72 74 75 75 76 78 80 84 86 88 91 96 100 100 97 95 90 84 79 75 75 77 79 79 75 64 55 51 48 47
13 16 17 16 15 15 16 14 12 12 12 14 16 18 21 23 25 27 29 31 32 33 33 33 32 33 34 34 34 34 34 33 33 34 35 36 37 38 39 40 41 41 42 43 45 47 50 52 53 53 55 58 61 64 67 68 69 71 73 74 74 75 77 80 83 86 89 91 93 97 100 101 98 93 88 82 78 76 77 77 75 70 60 51 47 45 45 47
17 18 16 14 13 14 14 12 12 13 14 16 19 22 23 25 27 29 30 31 31 31 32 32 32 33 33 33 33 34 34 34 34 35 36 37 38 39 39 41 41 42 43 44 46 48 51 54 55 57 61 66 70 71 72 72 72 73 74 74 74 76 81 84 86 89 92 93 95 96 99 101 99 91 84 81 80 79 77 73 65 55 47 45 46 46 47 48
17 16 14 13 14 14 13 12 14 16 17 19 21 23 25 26 28 29 29 30 31 31 32 33 33 33 33 33 33 33 34 34 35 36 36 38 39 39 40 42 42 43 44 45 47 49 51 54 56 59 61 66 70 72 73 74 74 75 75 74 77 81 85 88 89 92 95 96 98 97 96 99 98 89 83 82 79 76 72 64 54 46 44 45 46 47 48 47
15 13 13 14 14 14 14 15 17 18 20 21 22 24 26 27 28 29 29 31 32 32 34 34 34 34 34 34 34 34 34 35 36 37 37 39 39 39 41 42 42 43 44 45 47 49 51 53 56 59 62 65 69 70 71 73 74 74 74 76 81 85 88 90 92 94 96 97 99 98 95 96 94 87 83 80 75 71 63 54 47 45 44 44 45 47 46 44
13 13 12 13 14 15 16 17 18 19 21 23 24 25 27 28 29 30 31 32 33 34 35 35 36 36 36 36 36 36 36 35 36 36 38 39 40 40 41 42 42 43 45 45 47 49 51 54 57 60 63 65 69 70 71 72 74 74 75 78 84 88 90 93 94 95 95 95 97 97 95 93 89 85 81 76 70 63 54 48 46 45 42 42 44 45 44 42
14 14 13 14 15 17 17 18 20 21 23 25 26 27 28 29 30 31 32 33 35 36 37 38 38 38 38 38 39 40 39 39 38 38 39 40 42 42 42 43 44 44 46 47 49 50 52 55 58 61 63 65 69 70 71 72 74 75 77 82 87 89 91 93 95 95 95 94 95 95 94 92 86 80 77 72 64 55 47 45 44 41 40 41 42 42 41 40
13 14 14 15 16 17 18 20 22 24 26 27 27 28 29 30 31 33 34 36 37 38 39 40 40 41 41 41 42 42 41 42 41 41 41 42 44 45 44 44 45 46 47 49 51 52 54 56 59 62 64 65 67 69 70 73 75 76 80 86 89 90 91 93 95 96 95 95 96 95 95 92 84 77 73 67 58 49 44 44 43 39 38 38 39 40 40 40
12 13 13 16 17 18 20 22 24 27 28 28 28 29 30 32 33 35 37 39 40 41 42 42 43 43 43 43 44 43 42 43 43 43 43 44 45 46 45 45 46 47 49 51 53 54 56 58 60 63 66 66 67 69 71 73 75 78 83 89 91 91 92 93 96 96 93 93 97 97 95 91 83 75 71 64 55 47 44 44 44 40 36 36 38 39 39 40
15 15 15 18 21 23 24 26 27 29 29 29 30 31 32 34 36 38 40 41 43 44 44 44 45 45 45 45 45 45 44 44 44 43 44 44 45 45 45 45 47 49 51 53 54 56 58 61 63 65 68 69 69 70 73 75 77 80 86 91 92 93 94 95 97 96 90 91 96 97 95 90 81 74 69 63 54 47 45 45 46 44 40 37 37 38 39 40
Wind_Direction
208 210 212 214 216 217 218 219 221 225 228 232 236 240 245 249 253 257 265 258 238 231 237 246 253 256 254 254 261 264 266 269 274 280 282 283 283 285 288 291 294 295 295 295 294 294 292 291 289 288 287 286 285 284 283 283 283 283 284 285 285 285 285 286 285 284 283 283 284 286 287 288 290 286 285 286 285 283 282 281 280 280 283 282 281 282 283 283
205 206 208 210 212 214 216 218 220 223 226 231 236 243 250 257 257 252 254 245 223 222 226 231 238 242 245 250 257 264 271 276 279 280 280 282 285 289 292 295 297 297 297 297 297 296 294 291 288 287 286 285 286 287 287 287 287 288 289 288 287 287 288 287 286 286 287 288 290 291 291 292 290 287 287 285 284 284 282 283 283 284 285 284 284 284 285 286
203 203 203 206 208 210 212 215 218 221 226 231 235 240 245 251 252 240 227 212 203 203 204 217 234 239 251 263 267 271 274 275 277 278 281 286 291 295 297 298 298 298 299 300 301 301 299 296 293 292 291 291 291 291 292 293 293 294 293 290 289 289 289 289 291 293 295 295 295 294 293 292 290 290 289 287 287 287 286 286 287 288 289 289 287 286 286 287
202 202 202 204 206 207 210 213 216 219 222 225 225 224 224 225 227 215 196 188 187 187 194 220 241 252 260 268 270 271 273 275 279 283 288 294 297 298 299 299 300 302 304 305 306 307 305 303 301 299 298 297 296 295 294 294 296 296 294 294 295 295 295 295 297 298 298 298 296 296 296 294 292 293 294 292 290 290 291 291 291 291 290 290 289 288 287 287
202 202 202 201 203 205 207 209 211 214 214 212 208 207 209 206 201 198 194 194 198 201 211 231 246 256 260 262 266 269 273 278 285 291 295 298 300 300 301 303 305 307 308 307 308 308 307 305 303 301 300 301 300 299 298 297 299 298 297 298 300 300 299 298 299 299 299 299 299 301 299 295 295 297 297 295 292 292 295 295 293 291 289 289 290 290 289 289
202 203 201 199 201 203 204 205 206 206 204 199 195 195 197 195 192 195 202 208 213 220 231 243 252 256 257 261 267 274 278 283 289 292 293 295 299 302 305 307 308 309 308 307 308 308 308 308 307 305 304 304 303 302 299 297 297 295 294 296 299 299 298 300 301 302 301 301 303 303 300 296 297 301 301 297 295 296 298 297 294 293 291 291 291 291 290 290
201 202 201 198 199 200 200 201 198 195 193 190 189 190 193 195 195 199 208 216 224 234 243 249 253 256 261 268 275 281 284 285 287 289 292 297 302 306 308 309 310 311 311 311 310 310 308 306 307 304 301 300 300 299 298 297 296 295 296 298 300 301 302 305 305 303 303 305 306 305 302 300 300 303 304 301 300 300 299 298 296 294 293 292 291 290 289 289
201 201 202 198 196 195 194 194 191 189 188 188 189 191 195 199 203 207 214 224 232 240 247 253 258 264 271 276 279 282 284 285 287 293 299 302 304 308 310 310 311 311 311 310 307 304 301 301 303 303 303 304 305 305 306 307 306 304 303 305 306 306 309 310 306 305 306 307 309 308 306 305 305 306 306 305 303 302 300 299 298 296 294 293 291 290 288 287
202 203 203 199 194 192 191 193 193 192 189 188 189 192 197 202 208 214 221 229 237 245 253 261 267 272 275 276 279 285 288 287 288 293 298 302 306 310 309 305 303 303 306 307 306 305 307 311 312 312 313 314 315 316 317 317 315 312 310 310 310 311 311 309 307 307 308 309 310 310 308 307 306 306 307 306 303 302 301 300 298 297 296 294 293 291 290 289
204 205 204 202 198 194 194 198 198 193 189 188 190 194 199 204 210 218 227 236 245 253 259 265 271 275 276 279 281 282 281 279 285 292 298 302 303 303 304 302 303 309 314 317 320 321 323 326 324 321 323 322 323 324 322 319 317 314 312 312 312 311 310 308 308 308 308 310 311 311 309 307 305 305 306 306 303 302 301 300 298 297 296 295 294 293 292 291
204 204 204 204 203 199 199 200 195 189 188 190 192 197 202 208 215 224 233 241 247 251 258 266 268 268 264 259 255 258 268 278 288 293 292 292 295 305 312 315 318 325 331 333 335 336 334 333 329 324 325 325 323 323 321 318 317 316 314 313 309 310 312 311 311 310 310 311 311 311 311 308 306 305 305 305 304 302 301 300 298 297 296 295 294 293 291 290
201 202 202 202 201 198 197 194 188 186 188 190 193 197 202 207 211 213 210 203 195 195 191 191 201 214 224 232 239 244 255 264 265 275 288 300 307 317 330 338 340 342 346 344 340 335 330 330 327 322 323 325 322 322 322 320 320 320 318 315 312 314 319 318 315 312 310 310 309 309 313 314 310 306 306 305 306 304 303 301 300 299 297 296 296 295 293 291
196 196 195 195 193 191 189 186 183 183 185 186 186 186 183 177 170 164 162 167 173 176 173 169 176 185 188 183 184 186 179 208 271 300 314 322 325 335 348 354 353 350 347 342 336 331 327 326 324 323 326 327 324 324 325 324 322 321 319 319 319 317 317 317 315 313 310 310 310 309 314 320 318 312 308 307 306 305 304 303 301 300 299 297 297 296 294 292
188 187 186 185 183 182 178 175 173 171 170 167 163 157 154 154 155 159 162 163 158 152 147 145 148 150 145 141 147 160 176 317 329 340 346 349 352 354 355 353 351 348 341 336 332 329 328 328 328 329 329 327 328 328 326 324 322 322 321 321 319 316 315 315 316 317 315 314 314 314 317 321 322 319 314 311 309 308 306 304 302 301 299 297 297 296 296 294
171 170 170 168 166 163 158 155 154 153 152 150 149 149 152 153 153 152 147 142 137 135 136 138 138 135 133 130 123 97 25 11 11 9 3 1 357 353 350 347 345 341 337 336 334 334 334 333 334 333 327 326 330 329 326 325 324 323 323 323 319 318 320 319 319 321 322 320 319 319 321 321 322 321 318 316 314 312 310 307 304 303 301 300 299 299 298 298
144 144 144 144 143 143 143 143 144 145 146 146 147 147 147 144 141 138 134 131 130 130 130 133 131 125 119 110 96 75 52 37 26 15 4 359 354 348 345 343 343 342 342 342 340 340 339 335 335 330 325 329 332 330 328 327 325 322 321 323 323 322 322 323 323 324 325 325 323 323 324 321 320 319 317 315 313 312 310 308 308 308 308 306 306 305 305 305
127 130 131 133 135 137 138 140 141 142 141 141 140 139 137 135 133 131 128 126 125 126 126 127 124 112 99 92 80 61 46 32 19 9 0 354 351 350 347 344 345 346 345 345 343 342 338 334 331 327 329 334 333 329 326 323 321 322 322 324 328 329 327 326 327 328 329 329 327 328 326 320 318 315 313 313 313 313 312 311 313 314 313 313 313 313 312 312
124 126 128 130 132 133 135 135 135 135 135 134 133 132 130 128 126 124 123 122 122 122 122 120 110 98 87 76 59 41 28 16 9 4 358 353 351 351 350 347 346 344 344 343 341 338 335 334 332 333 335 333 329 325 323 323 323 325 326 326 330 333 332 330 330 330 332 332 329 329 326 318 314 312 313 316 317 316 316 315 316 316 315 315 315 314 313 312
123 125 126 128 129 129 130 129 129 129 129 128 126 125 122 120 118 116 117 117 115 112 110 105 94 83 70 55 39 25 13 5 4 3 358 356 353 350 348 348 345 341 339 338 337 336 335 335 336 337 333 326 326 327 328 330 330 330 330 329 330 333 334 332 332 330 329 330 328 328 325 316 313 314 317 321 319 318 319 318 318 317 316 315 314 314 312 311
121 122 123 123 124 123 123 123 123 123 121 120 119 116 114 112 109 108 109 105 101 96 93 87 73 60 47 35 24 15 9 5 5 1 357 356 353 348 346 344 341 336 334 335 337 338 337 337 338 336 331 330 332 333 333 333 332 330 330 331 330 331 331 330 330 328 327 327 326 326 324 316 315 319 321 322 320 319 319 318 318 317 316 315 314 313 311 309
116 117 117 117 117 117 118 117 117 116 115 114 112 110 109 106 104 103 100 93 87 85 79 68 57 46 36 28 22 16 11 5 358 354 355 353 349 345 342 338 335 334 336 338 339 340 340 340 339 337 336 336 335 334 333 331 329 330 330 330 329 328 328 328 328 327 326 326 326 326 324 317 319 323 322 322 321 319 318 317 316 316 315 314 313 313 311 310
112 113 113 113 113 113 113 112 112 111 111 110 108 107 105 101 99 95 87 80 75 72 63 56 52 44 36 30 22 14 8 359 352 351 351 348 345 342 340 338 337 340 342 343 343 343 342 340 338 337 336 334 332 331 331 329 329 330 330 329 328 327 325 324 325 326 326 326 325 325 322 319 322 324 322 321 320 318 316 315 314 314 313 313 313 313 313 312
108 108 108 108 108 108 107 108 108 108 108 107 103 101 98 96 93 85 77 69 62 60 56 54 51 42 33 24 14 7 1 355 351 351 348 344 344 343 343 344 344 346 348 347 345 342 339 337 335 334 333 332 331 330 330 330 330 329 329 327 327 328 326 325 325 326 327 326 324 324 322 320 322 322 321 321 320 318 316 314 313 311 310 310 311 312 312 311
103 104 104 103 104 104 104 105 105 105 103 100 97 95 92 88 81 74 72 66 60 58 53 45 39 31 22 12 6 359 353 350 350 350 347 348 350 349 350 350 349 349 349 346 342 340 337 336 334 333 332 331 330 329 329 330 328 326 326 327 329 330 330 329 328 327 326 325 324 323 321 320 320 320 320 319 318 318 316 315 313 311 310 310 310 311 310 309
101 102 103 103 104 103 103 101 100 101 99 96 92 88 82 76 69 67 70 68 62 56 47 37 27 20 12 4 356 351 351 353 354 356 357 358 356 353 353 352 350 350 347 344 340 339 337 336 334 334 332 330 329 328 328 327 326 326 328 330 332 332 331 330 328 326 324 324 324 322 320 318 318 317 316 315 314 314 314 313 311 310 310 310 310 309 308 308
103 103 104 104 103 102 100 99 98 95 90 85 80 75 71 69 69 68 64 57 50 43 31 24 16 8 4 355 347 351 359 1 2 6 6 2 357 354 353 351 350 349 347 343 340 337 336 335 334 333 332 330 329 327 326 325 326 328 330 332 332 331 330 328 326 326 325 324 323 321 319 316 315 314 313 312 311 311 311 310 308 308 309 309 308 307 306 305
104 103 103 102 100 99 96 93 89 84 79 75 71 70 68 67 66 62 52 39 35 29 14 9 6 2 2 357 357 4 8 9 11 10 4 358 354 354 353 351 349 348 346 342 338 336 334 333 333 332 330 329 327 326 325 326 328 330 332 331 330 328 326 325 325 325 324 323 322 319 316 314 314 314 312 311 310 310 310 308 307 307 309 308 307 305 303 302
100 99 99 97 95 93 89 85 81 77 75 73 71 70 67 63 59 51 39 22 19 11 4 8 8 8 12 14 17 19 14 12 12 7 0 357 356 355 353 352 349 347 345 341 337 336 334 332 332 330 329 329 328 327 327 328 330 332 332 331 328 326 325 324 324 324 322 322 321 319 317 315 315 316 314 312 311 310 309 306 306 307 307 306 305 303 302 300
96 95 93 91 89 88 86 83 81 80 79 77 74 68 62 57 50 40 24 17 14 5 9 20 22 23 24 22 22 19 14 10 6 1 1 360 358 355 353 352 349 345 343 340 337 336 333 332 331 330 330 330 331 330 330 331 332 332 331 328 326 325 325 324 323 322 322 322 323 321 319 317 316 316 314 312 312 310 309 307 307 307 307 306 304 303 301 298
91 90 88 87 87 88 87 86 85 84 81 77 71 66 59 48 36 27 19 19 20 20 27 32 31 28 25 22 19 14 11 9 4 1 0 358 356 353 351 349 345 342 340 339 337 335 334 333 332 331 331 332 332 331 331 332 332 332 330 327 326 325 325 324 323 323 323 323 324 322 320 318 317 317 316 315 314 313 312 312 311 310 308 307 305 303 301 298
88 87 88 88 89 90 89 89 88 84 78 70 62 57 52 41 27 22 21 24 30 36 39 36 30 26 23 20 17 11 8 6 3 359 355 353 351 349 347 343 341 339 339 338 338 336 336 336 335 333 332 332 331 331 332 333 333 332 331 328 327 325 324 325 325 326 325 326 327 324 321 320 319 320 320 319 318 317 317 315 313 312 310 308 306 304 301 298
86 87 90 92 92 93 92 91 88 79 69 61 54 44 40 36 24 25 32 37 40 41 38 33 29 24 20 15 12 9 4 0 357 354 351 349 347 346 344 341 341 340 339 339 338 337 337 337 336 335 334 332 330 328 329 332 333 333 332 331 330 329 329 330 330 329 328 329 329 326 323 322 322 322 321 321 320 319 318 316 314 312 309 307 305 303 301 300
91 93 95 96 95 93 91 86 78 67 54 48 44 38 40 41 36 39 46 45 42 39 34 30 26 21 16 12 7 3 358 355 351 349 348 347 345 344 342 341 340 339 337 336 336 335 336 336 337 338 337 335 334 333 332 334 335 335 335 334 335 334 333 333 332 330 328 328 330 327 324 323 323 322 321 320 320 319 317 315 312 310 308 306 305 304 302 300
95 95 94 91 87 83 78 72 67 61 51 40 37 45 53 56 51 50 49 44 40 37 32 27 22 16 11 6 1 356 353 350 348 346 346 344 342 341 339 338 337 335 335 334 334 334 338 340 340 342 342 339 339 338 337 337 337 336 336 336 336 335 333 332 331 330 327 327 329 328 324 322 322 320 319 319 319 317 315 313 310 309 308 306 304 302 299 296
92 88 82 75 69 63 57 54 50 50 49 43 49 61 66 60 53 50 45 41 38 33 27 21 16 10 4 359 356 352 349 347 345 344 342 340 338 337 337 336 335 334 334 334 335 336 342 347 346 345 345 342 340 339 337 337 337 336 336 337 337 335 332 330 330 329 326 326 328 327 324 322 321 319 319 319 317 315 313 312 311 309 307 304 301 299 297 295
83 76 70 64 57 51 47 40 32 40 54 61 66 69 64 54 50 46 41 37 34 27 21 14 9 3 358 354 351 348 347 344 343 341 339 336 335 335 335 334 334 335 335 336 337 336 340 348 348 344 345 342 338 338 339 339 338 337 337 337 336 334 332 331 330 329 327 326 327 327 325 323 322 321 321 320 317 315 314 312 310 307 305 303 301 299 297 295
73 64 58 53 47 42 35 30 35 57 69 72 71 65 56 50 47 42 37 32 26 19 11 6 2 357 353 350 348 346 344 341 339 338 336 335 334 334 335 335 336 337 337 338 338 336 337 344 348 344 343 340 337 338 340 340 339 338 337 337 336 334 334 333 331 329 328 327 326 326 325 324 324 323 323 321 318 316 314 311 309 308 307 304 301 297 294 292
67 53 42 41 41 33 29 39 62 76 75 70 66 59 52 48 43 36 30 23 16 11 4 359 355 352 350 349 347 345 342 339 337 336 335 335 336 336 337 337 338 338 339 338 339 338 336 339 346 345 341 339 336 336 338 339 339 338 337 337 336 336 336 335 333 330 328 327 326 325 325 325 327 327 325 322 320 318 316 313 312 311 309 306 301 298 294 292
64 46 33 31 33 35 48 71 80 77 72 67 61 53 47 41 33 26 18 11 7 2 358 355 352 350 349 347 345 343 340 338 337 336 336 337 338 339 338 339 339 338 340 340 339 340 338 337 343 345 341 337 335 336 337 338 338 337 337 338 338 337 335 335 334 331 328 327 326 325 326 329 332 330 326 324 322 320 318 317 315 312 311 309 304 300 297 294
56 46 33 29 40 58 78 85 77 69 66 62 53 44 38 30 21 14 7 3 360 356 354 352 350 348 346 344 342 340 339 339 338 338 338 339 339 340 339 340 340 339 340 340 340 340 339 337 340 343 340 337 337 338 339 339 339 338 338 338 337 336 335 334 333 331 329 328 327 327 328 332 334 330 326 325 323 321 319 318 315 312 312 313 309 305 302 299
47 43 36 42 64 84 88 75 68 65 61 54 44 34 25 16 10 6 2 358 356 354 352 349 347 345 343 342 340 340 340 340 340 339 339 340 340 340 340 340 340 339 340 340 340 340 339 337 338 341 340 338 339 339 339 339 339 338 338 337 337 337 336 335 333 332 331 330 330 330 329 331 332 328 327 326 323 321 319 316 313 311 312 314 312 310 308 306
40 43 51 70 85 89 79 70 66 63 55 43 31 22 14 6 3 360 358 355 353 352 350 347 346 344 343 342 341 341 342 341 342 341 340 341 341 341 340 340 339 340 340 340 340 339 338 336 337 339 340 340 339 339 339 339 338 338 338 337 337 337 336 334 333 332 332 331 331 330 329 329 329 327 327 326 324 322 318 312 309 309 312 315 314 313 312 311
43 60 78 88 89 81 72 71 64 53 43 28 16 12 7 3 359 356 354 353 351 350 349 348 347 346 344 343 342 342 343 343 343 341 341 342 341 340 340 339 339 340 340 340 339 339 337 335 335 337 338 337 337 338 338 338 337 337 337 337 337 336 334 334 333 332 332 333 333 331 328 328 329 329 328 327 323 318 313 310 310 312 316 318 317 316 315 314
65 82 89 88 84 76 69 61 48 37 28 16 9 7 4 360 357 354 353 352 352 351 351 350 349 347 344 343 343 343 343 343 343 342 342 342 340 339 340 339 339 340 340 340 339 339 337 336 336 338 338 337 336 338 338 338 338 337 337 338 337 336 334 334 334 333 333 334 335 332 328 329 331 331 329 325 320 315 313 315 317 318 321 322 319 319 319 317
82 88 88 82 75 68 59 45 31 23 14 8 6 4 1 358 355 353 354 355 355 354 353 352 349 347 346 345 345 344 343 343 343 343 342 342 340 339 339 339 339 340 340 339 339 338 338 337 337 340 342 341 340 341 340 339 339 338 338 338 338 336 336 336 336 335 335 335 335 333 330 330 333 333 328 324 320 318 319 321 322 324 325 323 322 322 320 317
85 85 81 73 62 52 43 30 19 13 7 5 5 2 360 357 356 357 358 359 358 356 354 353 351 350 349 348 346 345 344 344 344 343 342 341 341 340 339 339 339 340 340 339 337 338 338 337 337 340 343 342 340 341 340 338 337 338 338 339 338 338 338 338 338 337 336 336 336 334 332 332 334 333 328 325 323 322 324 325 327 329 328 324 322 320 317 316
80 76 69 62 51 38 27 19 14 10 6 5 4 3 1 359 0 3 2 1 359 357 357 356 355 354 353 351 349 347 346 345 344 343 342 341 340 339 339 339 339 338 338 337 337 337 338 338 337 339 342 341 339 339 338 336 337 338 339 339 339 340 340 340 339 338 338 337 336 335 333 333 334 332 328 327 325 325 327 329 331 332 329 323 319 316 314 314
67 61 53 48 40 29 19 16 13 9 7 7 7 5 5 4 5 6 4 3 2 1 1 0 359 358 356 353 352 350 349 347 344 343 342 341 341 340 339 339 338 337 337 336 337 337 338 338 338 339 341 340 338 338 337 336 337 338 339 339 340 341 341 341 340 339 340 339 337 335 335 334 333 331 329 328 327 327 329 331 332 331 326 320 315 312 312 314
59 51 41 34 30 24 16 13 11 9 10 11 11 10 9 9 9 8 6 6 6 5 4 3 2 1 359 356 354 352 350 348 345 343 343 342 341 341 341 339 337 337 336 336 336 337 338 339 339 339 340 340 338 337 337 337 338 339 340 341 342 343 342 341 340 340 341 340 337 335 335 335 333 331 330 329 328 328 330 330 330 327 323 317 313 312 313 313
51 41 30 25 24 20 15 13 12 13 15 16 15 13 12 11 11 11 9 8 8 7 5 4 4 3 1 359 357 354 350 348 346 344 344 343 342 342 342 340 338 337 336 336 337 339 340 340 339 338 339 339 337 337 338 338 339 340 341 342 343 342 341 341 341 342 343 340 338 336 336 336 335 332 330 330 329 328 328 329 329 327 323 318 314 313 314 314
38 28 17 19 24 22 19 19 19 20 20 19 17 16 15 14 13 12 11 10 9 7 6 5 4 3 2 0 358 355 352 348 346 344 343 343 342 341 341 340 338 337 336 336 338 340 340 339 339 338 338 339 338 338 339 339 340 341 342 342 342 341 342 343 343 344 344 340 338 338 337 337 336 334 332 331 329 328 329 332 333 331 328 323 318 316 316 317
41 34 26 28 32 30 28 27 26 25 24 21 19 17 16 14 13 12 11 10 8 7 6 5 4 2 1 360 358 356 353 350 347 344 343 342 341 340 339 339 338 337 337 338 339 340 340 339 338 338 338 338 338 339 340 340 341 343 343 343 343 343 344 345 345 346 345 341 338 339 339 337 337 335 333 330 330 331 332 336 337 334 332 329 324 320 319 319